CZ-2D DEB, 44605

Orbit data source: Space-Track

CZ-2D DEB, 44605 is space debris in SSO originally from a launch on Fri, 11 Nov 2016 UTC launched from the Jiuquan Satellite Launch Center, China (JSC). Debris objects in space refer to the collection of defunct objects orbiting the Earth. Examples of debris include non-operational satellites, rocket bodies, and fragments generated from explosions, collisions, or faulty payload assembly.

Loading next visibility...
Identifier
44605, 2016-068E
Orbit
SSO
Last TLE update
1 day ago
Origin
Manufacturer
Unknown
Mission
Spacecraft
Bus & Motor
Unknown
Mass
Unknown
Launch date (UTC)
2016-11-11 (9 years ago)
Launch vehicle
Unknown
Launch site
Jiuquan Satellite Launch Center, China (JSC)
Object type
Payload
Rocket body
Debris
Shape & HBR
Unknown
Radar Cross Section
Small (<0.1 m²)

Expand to show TLE details & history

TLE from 1 day ago
0 CZ-2D DEB
1 44605U 16068E   25181.04605605  .00000439  00000-0  31845-3 0  9993
2 44605  98.4485 271.7249 0230609 147.4408 214.1216 13.88814189432264
Epoch: 2025-06-30T01:06Z
TLE epoch observation values (Epoch: 2025-06-30T01:06:19.242Z)
Latitude
-0.00003°
Longitude
-23.21676°
Altitude
1,076.462 km
Speed
7.243 km/s
True Right ascension
18h 06m 53s
True Declination
0° 00' 00"
Sunlit
Object was in full shadow at epoch
Visualization orbit readout
Latitude
-40.59093°
Longitude
-14.70795°
Altitude
1,116.339 km
Speed
7.209 km/s
Apparent Right ascension
14h 48m 15s
Apparent Declination
-67° 10' 56"
Sunlit
Object is in full shadow
Visualization observer readout
Local Sidereal Time
21:23:28
Azimuth
209.81° SW
Elevation
-39.566°
Doppler factor
1
Orbital elements
Apogee altitude
1,098.507 km
Perigee altitude
761.444 km
Semi-major axis
7,308.112 km
Eccentricity
0.02306
Inclination
98.4485°
RAAN
271.7249°
Arg. of periapsis
147.4408°
True anomaly
Unknown
Mean anomaly
214.1216°
Eccentric anomaly
Unknown
Mean motion
3.47404 °/min
Orbital period
103.63 mins
BSTAR
0.00031845
Loading maneuver chart data...
Loading SW <> Apogee altitude chart data...
Loading historical data...
Loading historical data...
Loading historical data...
Loading historical data...
Loading historical data...
Loading historical data...
Loading historical data...

CZ-2D DEB Visibility forecast

Observer location: undefined°, undefined°

Span
Click to sort rows by Start time (UTC) header in descending order
Start Az.
Max El. time (UTC)
Max El. Az.
Max El.
End time (UTC)
End Az.
8 mins2025-07-01 19:12:08.531Z4.672° NNE2025-07-01 19:16:08.531Z258.027° W41.943°2025-07-01 19:20:08.531Z205.764° SW
9 mins2025-07-02 05:07:08.531Z124.359° SE2025-07-02 05:11:08.531Z74.344° E29.08°2025-07-02 05:16:08.531Z8.115° NNE
9 mins2025-07-02 06:49:08.531Z202.322° SSW2025-07-02 06:54:08.531Z270.665° WNW30.287°2025-07-02 06:58:08.531Z323.177° NNW
|